SCP
0 0 0 0 0 0 0 0 0 0 0 0 0 0 0 0 0 0 0 0 0 0 0 0 1 0 0 0 0 0 0 0 0 0 0 0 0 0 0 0 0 0 0 0 0 0 0 0 0
0 0 0 0 0 0 0 0 0 0 0 0 0 0 0 0 0 0 0 0 0 0 0 1 1 0 0 0 0 0 0 0 0 0 0 0 0 0 0 0 0 0 0 0 0 0 0 0 0
0 0 0 0 0 0 0 0 0 0 0 0 0 0 0 0 0 0 0 0 0 0 0 1 1 0 0 0 0 0 0 0 0 0 0 0 0 0 0 0 0 0 0 0 0 0 0 0 0
0 0 0 0 0 0 0 0 0 0 0 0 0 0 0 0 0 0 0 0 0 0 0 1 1 0 0 0 0 0 0 0 0 0 0 0 0 0 0 0 0 0 0 0 0 0 0 0 0
0 0 0 0 0 0 0 0 0 0 0 0 0 0 0 0 0 0 0 0 0 0 0 0 0 0 0 0 0 0 0 0 0 0 0 0 0 0 0 0 0 0 0 0 0 0 0 0 0
0 0 0 0 0 0 0 0 0 0 0 0 0 0 0 0 0 0 0 0 0 0 0 0 0 0 0 0 0 0 0 0 0 0 0 0 0 0 0 0 0 0 0 0 0 0 0 0 0
0 0 0 0 0 0 0 0 0 0 0 0 0 0 0 0 0 0 0 0 0 0 0 0 0 0 0 0 0 0 0 0 0 0 0 0 0 0 0 0 0 0 0 0 0 0 0 0 0
0 0 0 0 0 0 0 0 0 0 0 0 0 0 0 0 0 0 0 0 0 0 0 0 0 0 0 0 0 0 0 0 0 0 0 0 0 0 0 0 0 0 0 0 0 0 0 0 0
0 0 0 0 0 0 0 0 0 0 0 0 0 0 0 0 0 0 0 0 0 0 0 0 0 0 0 0 0 0 0 0 0 0 0 0 0 0 0 0 0 0 0 0 0 0 0 0 0
0 0 0 0 0 0 0 0 0 0 0 0 0 0 0 0 0 0 0 0 0 0 0 0 0 0 0 0 0 0 0 0 0 0 0 0 0 0 0 0 0 0 0 0 0 0 0 0 0
0 0 0 0 0 0 0 0 0 0 0 0 0 0 0 0 0 0 0 0 0 0 0 0 0 0 0 0 0 0 0 0 0 0 0 0 0 0 0 0 0 0 0 0 0 0 0 0 0
0 0 0 0 0 0 0 0 0 0 0 0 0 0 0 0 0 0 0 0 0 0 0 0 0 0 0 0 0 0 0 0 0 0 0 0 0 0 0 0 0 0 0 0 0 0 0 0 0
0 0 0 0 0 0 0 0 0 0 0 0 0 0 0 0 0 0 0 0 0 0 0 0 0 0 0 0 0 0 0 0 0 0 0 0 0 0 0 0 0 0 0 0 0 0 0 0 0
0 0 0 0 0 0 0 0 0 0 0 0 0 0 0 0 0 0 0 0 0 0 0 0 0 0 0 0 0 0 0 0 0 0 0 0 0 0 0 0 0 0 0 0 0 0 0 0 0
0 0 0 0 0 0 0 0 0 0 0 0 0 0 0 0 0 0 0 0 0 0 0 0 0 0 0 0 0 0 0 0 0 0 0 0 0 0 0 0 0 0 0 0 0 0 0 0 0
0 0 0 0 0 0 0 0 0 0 0 0 0 0 0 0 0 0 0 0 0 0 0 0 0 0 0 0 0 0 0 0 0 0 0 0 0 0 0 0 0 0 0 0 0 0 0 0 0
0 0 0 0 0 0 0 0 0 0 0 0 0 0 0 0 0 0 0 0 0 0 0 0 0 0 0 0 0 0 0 0 0 0 0 0 0 0 0 0 0 0 0 0 0 0 0 0 0
0 0 0 0 0 0 0 0 0 0 0 0 0 0 0 0 0 0 0 0 0 0 0 0 0 0 0 0 0 0 0 0 0 0 0 0 0 0 0 0 0 0 0 0 0 0 0 0 0
0 0 0 0 0 0 0 0 0 0 0 0 0 0 0 0 0 0 0 0 0 0 0 0 0 0 0 0 0 0 0 0 0 0 0 0 0 0 0 0 0 0 0 0 0 0 0 0 0
0 0 0 0 0 0 0 0 0 0 0 0 0 0 0 0 0 0 0 0 0 0 0 0 0 0 0 0 0 0 0 0 0 0 0 0 0 0 0 0 0 0 0 0 0 0 0 0 0
0 0 0 0 0 0 0 0 0 0 0 0 0 0 0 0 0 0 0 0 0 0 0 0 0 0 0 0 0 0 0 0 0 0 0 0 0 0 0 0 0 0 0 0 0 0 0 0 0
0 0 0 0 0 0 0 0 0 0 0 0 0 0 0 0 0 0 0 0 0 0 0 0 0 0 0 0 0 0 0 0 0 0 0 0 0 0 0 0 0 0 0 0 0 0 0 0 0
0 0 0 0 0 0 0 0 0 0 0 0 0 0 0 0 0 0 0 0 0 0 0 0 0 0 0 0 0 0 0 0 0 0 0 0 0 0 0 0 0 0 0 0 0 0 0 0 0
0 0 0 0 0 0 0 0 0 0 0 0 0 0 0 0 0 0 0 0 0 0 0 0 0 0 0 0 0 0 0 0 1 1 0 0 0 0 0 0 0 0 0 0 0 0 0 0 0
0 0 0 0 1 0 0 0 0 0 0 0 0 0 0 0 0 0 0 0 0 0 0 0 0 0 0 0 0 0 0 0 0 0 0 0 0 0 0 0 0 0 0 0 0 0 0 0 0
0 0 0 0 0 0 0 0 0 0 0 0 0 0 0 0 0 0 0 0 0 0 0 0 0 0 0 0 0 0 0 0 0 0 0 0 0 0 0 0 0 0 0 0 0 0 0 0 0
0 0 0 0 0 0 0 0 0 0 0 0 0 0 0 0 0 0 0 0 0 0 0 0 0 0 0 0 0 0 0 0 0 0 0 0 0 0 0 0 0 0 0 0 0 0 0 0 0
0 0 1 1 0 0 0 0 0 0 0 0 0 0 0 0 0 0 0 0 0 0 0 0 0 0 0 0 0 0 0 0 0 0 0 0 0 0 0 0 0 0 0 0 0 0 0 0 0
0 0 1 1 1 0 0 0 0 0 0 0 0 0 0 0 0 0 0 0 0 0 0 0 0 0 0 0 0 0 0 0 0 0 0 0 0 0 0 0 0 0 0 0 0 0 0 0 0
0 0 0 1 1 0 0 0 0 0 0 0 0 0 0 0 0 0 0 0 0 0 0 0 0 0 0 0 0 0 0 0 0 0 0 0 0 0 0 0 0 0 0 0 0 0 0 0 0
Wind_Speed
9 4 3 3 3 2 4 4 3 4 3 2 1 1 1 1 2 4 5 9 10 12 12 13 10 11 12 11 10 10 9 9 10 10 10 10 10 10 10 10 9 9 10 10 10 11 10 10 10
8 4 3 2 3 3 4 4 5 3 3 4 3 2 2 2 3 5 7 9 11 12 11 11 11 11 11 11 10 9 9 9 9 9 10 9 9 9 9 9 8 8 8 9 9 9 9 9 9
5 3 2 1 2 2 5 5 5 4 4 3 3 1 1 3 4 5 6 11 11 11 10 11 10 11 11 11 10 9 9 9 9 9 9 9 9 8 8 8 8 7 7 8 9 8 8 8 8
4 2 1 2 4 2 3 5 5 6 5 2 2 3 2 2 2 5 9 12 12 11 10 12 10 11 11 11 10 9 9 8 9 9 9 8 8 8 8 7 7 7 7 7 8 7 7 6 6
2 2 2 3 3 2 2 3 5 5 4 4 3 3 4 4 3 6 11 12 11 11 10 11 10 10 10 10 10 9 9 8 8 8 8 8 8 8 7 7 6 6 6 6 6 6 5 5 5
2 2 4 5 5 3 3 4 5 4 4 3 4 3 5 4 5 8 11 11 10 10 10 10 10 8 9 9 9 9 8 8 8 8 8 8 8 8 7 6 6 6 6 6 5 5 4 3 3
1 1 3 4 5 5 4 4 5 5 5 4 3 3 5 6 6 8 10 10 9 9 9 9 10 10 9 7 7 7 7 7 7 7 7 7 7 7 6 5 5 5 5 5 5 4 3 2 2
2 2 4 5 6 5 4 4 2 4 3 2 3 3 4 6 8 8 8 8 8 8 9 9 9 9 9 9 8 7 7 6 6 6 6 6 6 7 6 6 5 5 5 5 5 5 4 2 2
3 5 6 7 6 5 5 5 3 1 3 3 2 1 4 7 10 9 8 8 8 8 9 9 9 9 9 8 8 8 8 7 7 7 7 7 7 7 7 7 5 5 5 5 6 5 4 3 3
4 6 7 4 4 4 5 5 5 5 6 5 5 3 4 8 11 11 11 11 11 11 10 9 10 9 9 7 7 7 7 8 8 7 8 7 6 5 5 5 5 5 5 6 6 5 6 6 5
5 7 4 4 4 3 5 5 5 7 7 7 6 7 7 9 11 11 12 11 11 10 10 10 10 9 9 7 6 5 5 6 7 9 8 7 6 5 5 4 5 7 7 7 6 7 6 6 5
6 6 4 3 3 4 5 5 6 9 6 1 2 4 8 10 12 13 12 11 10 10 11 11 11 10 10 9 7 7 6 6 6 8 9 7 5 6 5 5 5 5 5 6 6 5 6 7 7
8 6 5 5 4 4 4 7 6 9 7 3 2 5 8 10 11 11 10 10 10 11 12 12 11 11 10 9 7 7 7 7 8 7 8 9 7 7 7 6 6 6 6 6 6 6 7 7 8
6 6 5 5 6 4 7 8 7 10 6 6 6 8 8 9 10 10 11 11 12 12 12 11 12 12 11 10 9 8 8 7 8 8 9 11 8 7 7 7 7 7 7 7 6 7 7 7 7
4 6 7 7 7 5 5 11 13 11 7 9 10 9 9 9 9 11 12 12 12 12 11 12 12 12 13 13 12 9 8 8 8 8 10 11 10 9 8 7 7 7 7 8 7 8 7 7 7
5 7 10 9 8 7 9 17 12 9 10 12 12 11 10 10 11 11 11 11 11 11 11 12 10 12 13 12 11 9 8 9 8 8 8 11 12 11 9 8 8 8 7 7 7 7 7 7 7
9 11 13 10 9 8 12 14 9 7 10 12 12 11 10 10 11 11 11 11 11 11 11 11 12 13 13 12 10 10 9 9 8 8 8 9 11 12 10 8 8 8 7 7 7 7 7 8 8
12 13 12 13 8 10 14 16 12 8 9 13 13 12 12 12 13 11 10 10 10 10 10 11 11 12 11 10 8 8 9 9 8 8 9 11 9 11 10 8 9 8 7 7 7 9 8 7 7
11 13 14 11 7 10 16 19 18 14 12 14 14 14 14 14 13 11 10 9 9 9 10 10 11 10 9 8 8 8 9 9 9 9 10 11 11 11 10 8 9 8 8 9 9 8 9 8 5
14 15 15 8 6 8 13 19 18 17 18 17 17 16 15 15 13 12 11 9 10 10 10 10 10 10 11 9 8 7 7 7 8 8 9 11 12 11 10 11 9 9 8 10 9 8 6 5 5
18 18 16 10 4 7 10 18 19 17 16 16 16 17 17 16 15 13 11 10 9 9 9 8 10 10 11 11 8 6 6 5 6 8 9 11 12 12 11 12 10 9 9 8 10 9 10 7 6
18 16 13 11 9 8 9 14 16 14 15 15 16 16 16 15 14 13 12 10 9 8 8 8 8 9 9 10 10 11 9 9 9 8 8 9 11 11 11 11 11 10 9 9 9 9 8 9 7
12 9 12 13 13 13 12 14 14 9 15 15 14 14 14 13 12 12 10 9 8 7 6 6 7 7 8 9 11 11 11 10 7 7 8 8 8 9 10 10 10 10 9 10 10 9 9 8 9
8 6 6 9 10 17 19 17 16 13 16 13 11 11 11 11 10 9 7 6 5 4 3 4 5 6 6 8 9 11 12 11 9 9 7 7 6 6 9 9 9 9 9 9 10 9 10 9 10
13 10 7 9 12 15 13 16 16 11 13 14 13 12 10 9 8 7 5 4 4 3 3 3 3 4 5 6 7 9 10 10 10 9 8 7 6 6 7 7 8 8 9 9 9 9 10 10 11
19 18 13 11 11 10 10 17 13 6 10 11 11 10 8 7 6 5 4 4 3 2 2 2 2 2 3 4 5 6 7 6 6 7 7 6 6 6 6 7 8 8 9 9 9 8 9 8 10
16 18 15 9 5 8 12 12 12 6 9 11 10 9 9 8 6 5 4 3 3 2 2 1 2 2 1 2 3 3 4 5 5 5 6 5 5 5 7 7 7 8 8 9 9 7 8 8 9
14 13 9 12 12 16 16 19 13 11 14 12 11 11 10 8 6 5 4 3 2 2 1 1 1 1 1 1 1 1 2 3 4 4 4 4 4 5 6 6 7 7 8 8 8 7 8 9 9
16 17 13 10 10 12 16 14 8 13 14 14 13 11 9 7 6 5 4 3 2 1 1 1 1 1 1 1 1 1 1 1 2 2 3 3 4 4 4 5 6 6 7 7 7 8 8 9 9
17 20 20 14 12 13 14 13 3 8 9 9 8 7 6 6 5 5 4 3 2 2 1 1 1 1 1 1 1 1 1 1 1 2 2 3 3 3 3 4 4 5 5 6 6 8 8 9 9
Wind_Direction
323 319 263 241 207 134 120 130 152 153 148 94 108 211 237 27 349 60 97 147 144 148 150 152 148 146 143 139 139 138 136 133 132 130 127 124 122 120 117 113 111 110 108 106 103 97 91 87 88
326 306 253 246 225 168 135 150 166 144 111 125 135 176 175 105 55 98 138 152 153 151 154 155 144 149 146 145 145 145 144 141 138 137 135 132 129 127 124 121 119 117 116 115 110 103 94 91 89
320 302 297 205 193 168 135 151 147 124 142 177 155 164 358 84 118 137 140 153 156 155 157 147 150 152 152 151 150 151 152 152 149 147 143 139 137 134 131 130 126 124 124 122 115 107 99 94 92
308 264 249 197 136 101 121 140 148 148 159 187 193 150 123 68 113 133 144 158 159 158 160 152 158 157 159 157 157 158 158 157 157 154 150 147 144 143 141 139 135 131 129 126 120 114 105 98 94
322 295 195 158 141 125 144 148 168 171 167 167 198 157 128 114 123 141 154 163 163 161 164 159 162 162 163 164 165 167 167 165 162 159 157 155 152 151 152 149 148 143 137 133 129 122 113 103 97
325 271 213 185 159 147 159 169 183 185 168 167 194 163 123 128 152 153 160 167 166 166 167 164 162 166 168 171 173 175 174 175 173 168 166 164 162 162 163 163 161 157 153 150 143 137 130 120 108
315 249 213 188 172 172 162 174 199 189 188 177 196 175 135 155 155 157 165 167 168 172 175 175 176 177 176 177 178 179 178 179 178 175 169 167 168 169 167 171 175 173 170 170 164 160 157 148 130
319 208 186 193 194 185 160 175 207 212 179 114 211 213 135 146 147 155 162 169 174 181 187 186 186 187 187 186 182 184 182 183 181 177 168 165 169 176 172 186 184 190 188 187 184 183 183 179 164
256 224 210 202 201 185 167 185 166 202 167 170 209 321 61 130 149 157 166 179 186 193 197 197 195 195 195 196 185 191 190 190 189 187 176 185 202 199 193 201 188 197 197 198 201 202 196 197 191
224 228 220 207 211 192 181 200 176 185 194 194 190 168 136 155 168 178 186 192 197 200 202 203 204 203 201 198 196 203 203 200 207 207 198 206 212 212 218 183 201 207 203 208 213 211 205 225 230
214 233 220 211 212 210 195 201 194 208 214 214 204 179 163 176 186 197 202 204 206 207 206 208 209 209 207 203 204 204 206 208 212 213 210 211 213 212 218 209 201 212 214 222 212 218 232 238 247
215 223 225 218 204 209 209 200 207 222 231 203 217 172 175 191 200 206 209 211 210 213 214 212 211 212 213 212 210 210 209 209 212 211 213 212 213 217 218 222 222 221 221 228 233 235 239 244 247
219 222 223 233 217 227 224 223 230 233 234 227 204 192 201 206 213 216 220 221 219 219 219 216 213 215 213 214 216 216 216 217 216 213 212 216 218 219 219 222 224 227 228 229 233 239 243 246 249
218 223 230 227 222 220 229 241 237 240 225 222 219 219 220 221 223 223 222 225 224 225 225 219 217 217 216 215 216 218 219 218 222 218 216 215 221 223 223 225 225 228 229 234 238 244 249 251 252
207 219 234 230 223 216 222 243 233 238 224 230 231 233 236 237 233 232 230 230 230 229 229 224 220 218 218 219 220 220 219 218 220 221 221 219 222 225 226 230 229 228 228 232 237 243 247 252 254
195 218 230 221 216 208 215 246 235 229 226 237 239 239 240 243 242 242 240 238 236 234 230 227 219 219 219 220 220 219 220 219 222 222 223 222 223 226 227 230 232 228 226 227 231 236 240 245 250
205 221 226 221 211 204 219 249 245 227 225 238 242 242 244 250 250 246 241 239 238 235 233 230 222 222 221 220 220 221 221 222 223 222 223 224 223 224 227 232 234 229 227 228 230 233 237 247 251
206 217 223 225 204 209 225 243 245 237 235 243 246 247 247 250 253 252 248 242 239 237 235 234 229 226 222 219 219 222 224 225 224 224 225 224 223 222 225 232 235 230 228 230 230 235 236 246 257
223 222 228 232 213 218 235 246 250 248 243 247 248 249 251 253 258 256 253 246 239 236 233 231 230 224 215 209 210 215 220 221 223 225 227 227 226 222 222 228 233 227 229 233 231 232 239 241 242
221 229 235 236 217 232 250 254 255 252 247 247 250 250 252 255 255 252 251 246 239 237 234 233 230 224 215 212 207 211 216 222 225 225 228 228 227 225 223 226 229 227 231 235 234 228 235 238 215
221 226 229 229 225 239 268 262 248 246 243 244 245 248 251 253 257 257 253 251 246 242 238 233 231 226 219 215 211 210 217 227 225 226 227 228 227 227 225 228 230 231 230 236 234 229 232 241 228
227 222 226 226 229 238 231 266 252 245 243 238 240 241 245 249 251 255 256 255 249 247 243 237 236 231 224 214 211 210 211 219 224 225 227 229 227 229 229 231 232 234 233 238 239 232 234 239 244
224 208 214 225 236 249 234 254 260 237 245 242 237 237 241 245 248 250 251 253 256 256 251 243 237 233 227 217 214 215 221 228 233 230 233 232 228 228 230 231 233 235 237 240 241 237 233 234 243
190 175 213 231 237 245 234 239 260 231 236 237 232 233 237 241 243 245 249 252 259 262 255 248 238 234 228 219 217 219 224 228 231 232 234 234 233 231 231 232 233 236 238 241 243 242 240 238 241
195 190 204 213 221 240 225 233 252 240 231 232 235 237 237 239 240 240 245 253 259 262 261 250 234 235 231 222 220 222 227 230 233 235 237 238 238 236 235 230 235 238 240 244 244 243 243 242 242
205 206 211 221 228 234 211 233 250 237 231 233 236 237 234 231 229 230 238 247 257 265 262 248 236 241 242 228 226 227 229 232 237 239 241 242 244 245 244 236 237 241 243 245 245 245 245 245 244
207 216 226 242 256 253 232 242 256 241 234 228 224 220 222 222 220 225 233 245 255 263 270 262 247 249 262 245 230 229 231 231 237 243 244 245 247 250 246 241 240 243 244 245 247 245 246 246 247
221 209 206 216 226 240 244 242 239 212 216 216 218 218 218 218 217 220 228 240 250 263 274 276 264 261 274 268 249 247 246 243 242 241 244 251 257 258 254 248 248 249 249 249 248 250 249 250 250
204 210 214 220 227 236 249 247 230 221 213 214 216 218 219 219 222 222 229 237 234 234 257 265 265 272 285 279 260 245 258 259 249 247 255 260 262 264 263 262 257 256 256 254 252 252 254 254 257
222 217 214 220 222 231 249 254 182 215 219 216 217 217 219 224 226 224 222 221 227 236 252 261 269 286 306 304 282 277 283 270 256 264 275 276 273 273 270 269 267 266 265 263 260 261 260 261 262